Weatherford, OK

2:03 PM CST on December 11, 2017 (GMT -0600)
Weatherford

Weather History for KOJA - October, 2013

Change the Weather History Date:

Friday, October 4, 2013

  Actual Average (KJWG) Record (KJWG)
Temperature  
Mean Temperature 74 °F -  
Max Temperature 87 °F 79 °F 96 °F (1963)
Min Temperature 59 °F 54 °F 35 °F (2014)
Cooling Degree Days 8    
Growing Degree Days 24 (Base 50)    
Moisture  
Dew Point 64 °F    
Average Humidity 67    
Maximum Humidity 94    
Minimum Humidity 46    
Precipitation  
Precipitation 0.01 in - - ()
Sea Level Pressure  
Sea Level Pressure 29.81 in    
Wind  
Wind Speed 16 mph (South)    
Max Wind Speed 23 mph    
Max Gust Speed 36 mph    
Visibility 10 miles    
Events Rain , Thunderstorm    
Averages and records for this station are not official NWS values.
T = Trace of Precipitation, MM = Missing Value Source: NWS Daily Summary

Daily Weather History Graph

Daily Weather History Graph

Search for Another Location

Airport or City:

Trip Planner

Search our weather history database for the weather conditions in past years. The results will help you decide how hot, cold, wet, or windy it might be!

Date:

Astronomy

Oct. 04, 2013 Rise Set
Actual Time 7:32 AM CDT 7:13 PM CDT
Civil Twilight 7:06 AM CDT 7:39 PM CDT
Nautical Twilight 6:37 AM CDT 8:08 PM CDT
Astronomical Twilight 6:07 AM CDT 8:38 PM CDT
Moon 7:08 AM CDT (10/4) 6:58 PM CDT (10/4)
Length of Visible Light 12h 32m
Length of Day
11h 41m
Waning Crescent, 0% of the Moon is Illuminated
Oct 4
Waning Crescent
Oct 4
New
Oct 11
First Quarter
Oct 18
Full
Oct 26
Last Quarter

Hourly Weather History & Observations

Time (CDT) Temp. Heat Index Dew Point Humidity Pressure Visibility Wind Dir Wind Speed Gust Speed Precip Events Conditions
12:15 AM 77.0 °F - 64.4 °F 65% 29.78 in 10.0 mi South 18.4 mph 25.3 mph N/A   Clear
12:35 AM 75.2 °F - 64.4 °F 69% 29.78 in 10.0 mi South 16.1 mph 23.0 mph N/A   Clear
12:55 AM 75.2 °F - 64.4 °F 69% 29.78 in 10.0 mi South 13.8 mph 21.9 mph N/A   Clear
1:15 AM 75.2 °F - 64.4 °F 69% 29.78 in 10.0 mi South 16.1 mph 21.9 mph N/A   Clear
1:35 AM 73.4 °F - 64.4 °F 73% 29.78 in 10.0 mi South 17.3 mph 24.2 mph N/A   Clear
1:55 AM 73.4 °F - 64.4 °F 73% 29.78 in 10.0 mi South 16.1 mph 20.7 mph N/A   Scattered Clouds
2:15 AM 73.4 °F - 64.4 °F 73% 29.79 in 10.0 mi South 13.8 mph 21.9 mph N/A   Scattered Clouds
2:35 AM 73.4 °F - 64.4 °F 73% 29.79 in 10.0 mi South 13.8 mph 20.7 mph N/A   Clear
2:55 AM 73.4 °F - 64.4 °F 73% 29.80 in 10.0 mi South 11.5 mph 18.4 mph N/A   Clear
3:15 AM 73.4 °F - 64.4 °F 73% 29.79 in 10.0 mi South 16.1 mph 24.2 mph N/A   Clear
3:35 AM 73.4 °F - 64.4 °F 73% 29.79 in 10.0 mi South 17.3 mph 24.2 mph N/A   Scattered Clouds
3:55 AM 73.4 °F - 64.4 °F 73% 29.79 in 10.0 mi South 13.8 mph 20.7 mph N/A   Clear
4:15 AM 71.6 °F - 66.2 °F 83% 29.79 in 10.0 mi South 12.7 mph - N/A   Clear
4:35 AM 71.6 °F - 64.4 °F 78% 29.78 in 10.0 mi South 15.0 mph 19.6 mph N/A   Clear
4:55 AM 73.4 °F - 64.4 °F 73% 29.78 in 10.0 mi South 15.0 mph 21.9 mph N/A   Clear
5:15 AM 73.4 °F - 64.4 °F 73% 29.78 in 10.0 mi South 15.0 mph - N/A   Clear
5:35 AM 71.6 °F - 64.4 °F 78% 29.78 in 10.0 mi South 13.8 mph - N/A   Clear
5:55 AM 71.6 °F - 64.4 °F 78% 29.78 in 10.0 mi SSE 13.8 mph - N/A   Scattered Clouds
6:15 AM 71.6 °F - 64.4 °F 78% 29.78 in 10.0 mi SSE 13.8 mph 21.9 mph N/A   Scattered Clouds
6:35 AM 71.6 °F - 66.2 °F 83% 29.78 in 10.0 mi South 15.0 mph 20.7 mph N/A   Clear
6:55 AM 71.6 °F - 66.2 °F 83% 29.79 in 10.0 mi South 12.7 mph 18.4 mph N/A   Clear
7:15 AM 71.6 °F - 66.2 °F 83% 29.79 in 10.0 mi South 12.7 mph 23.0 mph N/A   Clear
7:35 AM 71.6 °F - 66.2 °F 83% 29.79 in 10.0 mi South 11.5 mph 20.7 mph N/A   Clear
7:55 AM 71.6 °F - 66.2 °F 83% 29.79 in 10.0 mi South 13.8 mph 20.7 mph N/A   Clear
8:15 AM 71.6 °F - 66.2 °F 83% 29.79 in 10.0 mi South 11.5 mph 20.7 mph N/A   Scattered Clouds
8:35 AM 71.6 °F - 68.0 °F 88% 29.80 in 10.0 mi South 18.4 mph 24.2 mph N/A   Scattered Clouds
8:55 AM 73.4 °F - 68.0 °F 83% 29.81 in 10.0 mi South 15.0 mph 23.0 mph N/A   Clear
9:15 AM 73.4 °F - 68.0 °F 83% 29.81 in 10.0 mi South 19.6 mph 24.2 mph N/A   Clear
9:35 AM 73.4 °F - 68.0 °F 83% 29.81 in 10.0 mi South 18.4 mph 23.0 mph N/A   Clear
9:55 AM 75.2 °F - 66.2 °F 73% 29.82 in 10.0 mi South 17.3 mph 28.8 mph N/A   Clear
10:15 AM 77.0 °F - 68.0 °F 74% 29.82 in 10.0 mi South 18.4 mph 28.8 mph N/A   Clear
10:35 AM 78.8 °F - 68.0 °F 69% 29.82 in 10.0 mi South 21.9 mph 27.6 mph N/A   Clear
10:55 AM 78.8 °F - 66.2 °F 65% 29.82 in 10.0 mi South 20.7 mph 29.9 mph N/A   Clear
11:15 AM 78.8 °F - 66.2 °F 65% 29.82 in 10.0 mi South 18.4 mph 26.5 mph N/A   Clear
11:35 AM 78.8 °F - 66.2 °F 65% 29.83 in 10.0 mi SSW 19.6 mph 26.5 mph N/A   Clear
11:55 AM 80.6 °F 82.7 °F 66.2 °F 61% 29.83 in 10.0 mi SSW 17.3 mph 24.2 mph N/A   Clear
12:15 PM 80.6 °F 82.7 °F 66.2 °F 61% 29.83 in 10.0 mi SSW 15.0 mph 25.3 mph N/A   Clear
12:35 PM 80.6 °F 82.7 °F 66.2 °F 61% 29.83 in 10.0 mi SSW 19.6 mph 25.3 mph N/A   Clear
12:55 PM 82.4 °F 84.6 °F 66.2 °F 58% 29.82 in 10.0 mi South 23.0 mph 28.8 mph N/A   Clear
1:15 PM 84.2 °F 86.6 °F 66.2 °F 55% 29.81 in 10.0 mi South 17.3 mph 27.6 mph N/A   Scattered Clouds
1:35 PM 84.2 °F 86.6 °F 66.2 °F 55% 29.81 in 10.0 mi South 23.0 mph 28.8 mph N/A   Scattered Clouds
1:55 PM 86.0 °F 88.2 °F 66.2 °F 51% 29.80 in 10.0 mi South 20.7 mph 28.8 mph N/A   Clear
2:15 PM 86.0 °F 87.3 °F 64.4 °F 48% 29.79 in 10.0 mi South 21.9 mph 29.9 mph N/A   Clear
2:35 PM 86.0 °F 87.3 °F 64.4 °F 48% 29.78 in 10.0 mi South 17.3 mph 26.5 mph N/A   Clear
2:55 PM 86.0 °F 87.3 °F 64.4 °F 48% 29.78 in 10.0 mi South 17.3 mph 28.8 mph N/A   Clear
3:15 PM 87.8 °F 89.4 °F 64.4 °F 46% 29.78 in 10.0 mi South 15.0 mph 26.5 mph N/A   Clear
3:35 PM 87.8 °F 89.4 °F 64.4 °F 46% 29.78 in 10.0 mi South 17.3 mph 25.3 mph N/A   Scattered Clouds
3:55 PM 86.0 °F 87.3 °F 64.4 °F 48% 29.78 in 10.0 mi South 20.7 mph 27.6 mph N/A   Scattered Clouds
4:15 PM 86.0 °F 87.3 °F 64.4 °F 48% 29.78 in 10.0 mi South 19.6 mph 24.2 mph N/A   Scattered Clouds
4:35 PM 86.0 °F 87.3 °F 64.4 °F 48% 29.78 in 10.0 mi South 18.4 mph 25.3 mph N/A   Scattered Clouds
4:55 PM 86.0 °F 87.3 °F 64.4 °F 48% 29.78 in 10.0 mi SSW 17.3 mph 25.3 mph N/A   Clear
5:15 PM 86.0 °F 87.3 °F 64.4 °F 48% 29.78 in 10.0 mi South 16.1 mph 25.3 mph N/A   Clear
5:35 PM 86.0 °F 87.3 °F 64.4 °F 48% 29.76 in 10.0 mi South 17.3 mph 27.6 mph N/A   Clear
5:55 PM 86.0 °F 87.3 °F 64.4 °F 48% 29.74 in 10.0 mi South 18.4 mph 27.6 mph N/A   Clear
6:15 PM 84.2 °F 85.6 °F 64.4 °F 51% 29.73 in 10.0 mi South 19.6 mph 27.6 mph N/A   Clear
6:35 PM 82.4 °F 83.9 °F 64.4 °F 54% 29.73 in 10.0 mi SSE 17.3 mph 24.2 mph N/A   Clear
6:55 PM 82.4 °F 83.9 °F 64.4 °F 54% 29.76 in 10.0 mi SSE 15.0 mph 20.7 mph N/A   Clear
7:15 PM 82.4 °F 83.9 °F 64.4 °F 54% 29.76 in 10.0 mi South 13.8 mph 20.7 mph N/A   Clear
7:35 PM 80.6 °F 82.3 °F 64.4 °F 58% 29.77 in 10.0 mi SSE 11.5 mph - N/A   Clear
7:55 PM 78.8 °F - 66.2 °F 65% 29.75 in 10.0 mi SSE 16.1 mph - N/A   Clear
8:15 PM 77.0 °F - 64.4 °F 65% 29.82 in 10.0 mi West 16.1 mph 21.9 mph N/A   Scattered Clouds
8:35 PM 71.6 °F - 64.4 °F 78% 29.84 in 10.0 mi NW 17.3 mph 35.7 mph N/A Thunderstorm Overcast
8:55 PM 68.0 °F - 62.6 °F 83% 29.85 in 10.0 mi NW 10.4 mph - N/A Rain Light Rain
9:15 PM 64.4 °F - 62.6 °F 94% 29.86 in 7.0 mi NNW 13.8 mph 19.6 mph N/A Rain , Thunderstorm Thunderstorms and Rain
9:35 PM 66.2 °F - 64.4 °F 94% 29.88 in 7.0 mi NNW 9.2 mph - N/A Rain , Thunderstorm Heavy Thunderstorms and Rain
9:55 PM 66.2 °F - 62.6 °F 88% 29.90 in 7.0 mi NNW 10.4 mph 26.5 mph N/A Rain , Thunderstorm Rain
10:15 PM 64.4 °F - 55.4 °F 73% 29.90 in 10.0 mi North 16.1 mph 25.3 mph 0.01 in Rain , Thunderstorm Light Thunderstorms and Rain
10:35 PM 62.6 °F - 51.8 °F 68% 29.94 in 10.0 mi North 16.1 mph 24.2 mph 0.01 in Thunderstorm Clear
10:55 PM 60.8 °F - 51.8 °F 72% 29.95 in 10.0 mi North 17.3 mph 21.9 mph 0.01 in   Scattered Clouds
11:15 PM 60.8 °F - 50.0 °F 68% 29.98 in 10.0 mi North 11.5 mph 18.4 mph N/A   Scattered Clouds
11:35 PM 60.8 °F - 48.2 °F 63% 29.98 in 10.0 mi North 12.7 mph 23.0 mph N/A   Scattered Clouds
11:55 PM 59.0 °F - 44.6 °F 59% 29.99 in 10.0 mi North 15.0 mph - N/A   Clear